User: anonymous   Login
Location: Bruderhein
(53.8035°N, 112.9265°W)
Time: 12:16:28
(UTC+00:00)
Language:

LO-87 - Orbit

View from above orbital plane
View from above orbital plane
View from above satellite
View from above satellite

Ground track
Ground track

The orbit data is extracted from the following two-line orbital elements,

1 41557U 16033B   23087.26193574  .00069630  00000-0  12448-2 0  9997
2 41557  97.3817 192.5628 0007535  79.4679   4.6419 15.49748742381056
Epoch (UTC): 28 March 2023 06:17:11
Eccentricity: 0.0007535
inclination: 97.3817°
perigee height: 412 km
apogee height: 422 km
right ascension of ascending node: 192.5628°
argument of perigee: 79.4679°
revolutions per day: 15.49748742
mean anomaly at epoch: 4.6419°
orbit number at epoch: 38105

The dashed part of the orbit path shows where the satellite is in the earth's shadow,  

DLR